Voltar ao catálogo

ARIANE 5 R/B

AtivoHEO
NORAD 40665·ROCKET BODY·🇫🇷 France

Lançado May 27, 2015 de Guiana Space Centre

Loading…

Próximas Passagens (próximas 24 horas)

TLE

AtualizadoSource: Space-Track

Época: Sep 14, 2026, 10:24 UTC

1 40665U 15026C   26257.43379168  .00003118  00000-0  59027-3 0  9997
2 40665   3.7987 286.7699 6917907  11.9450 358.5298  2.75627098102440

Acompanhe ARIANE 5 R/B em tempo real com AllMySat

Download on the App Store